Weather History for Ft. Stewart, GA

Change the Weather History Date:

Tuesday, July 31, 2012

  Actual Average Record
Temperature  
Mean Temperature 78 °F -  
Max Temperature 87 °F 92 °F 101 °F (1986)
Min Temperature 69 °F 71 °F 66 °F (1997)
Cooling Degree Days 13    
Growing Degree Days 28 (Base 50)    
Moisture  
Dew Point 73 °F    
Average Humidity 94    
Maximum Humidity 100    
Minimum Humidity 66    
Precipitation  
Precipitation 0.01 in - - ()
Sea Level Pressure  
Sea Level Pressure 29.95 in    
Wind  
Wind Speed 2 mph (South)    
Max Wind Speed 12 mph    
Max Gust Speed -    
Visibility 5 miles    
Events Fog    
Averages and records for this station are not official NWS values.
T = Trace of Precipitation, MM = Missing Value Source: NWS Daily Summary

Daily Weather History Graph

Daily Weather History Graph

Search for Another Location

Airport:

Trip Planner

Search our weather history database for the weather conditions in past years. The results will help you decide how hot, cold, wet, or windy it might be!

Date:

Astronomy

Jul. 31, 2012 Rise Set
Actual Time 6:41 AM EDT 8:23 PM EDT
Civil Twilight 6:14 AM EDT 8:49 PM EDT
Nautical Twilight 5:42 AM EDT 9:21 PM EDT
Astronomical Twilight 5:08 AM EDT 9:55 PM EDT
Moon 7:11 PM EDT (7/31) 5:02 AM EDT (7/31)
Length of Visible Light 14h 35m
Length of Day
13h 41m
Waxing Gibbous, 97% of the Moon is Illuminated
Jul 31
Waxing Gibbous
Aug 1
Full
Aug 9
Last Quarter
Aug 17
New
Aug 24
First Quarter

Hourly Weather History & Observations

Time (EDT) Temp. Heat Index Dew Point Humidity Pressure Visibility Wind Dir Wind Speed Gust Speed Precip Events Conditions
12:55 AM 72.0 °F - 71.1 °F 97% 29.96 in 10.0 mi Calm Calm - N/A   Clear
1:55 AM 70.9 °F - 70.3 °F 98% 29.96 in 10.0 mi ESE 3.5 mph - N/A   Clear
2:55 AM 71.1 °F - 70.5 °F 98% 29.95 in 10.0 mi Calm Calm - N/A   Clear
3:37 AM 69.8 °F - 69.8 °F 100% 29.93 in 9.0 mi Calm Calm - N/A   Partly Cloudy
3:46 AM 71.6 °F - 71.6 °F 100% 29.93 in 6.0 mi ESE 3.5 mph - N/A   Mostly Cloudy
3:51 AM 69.8 °F - 69.8 °F 100% 29.92 in 4.0 mi SE 3.5 mph - N/A   Mostly Cloudy
3:53 AM 69.8 °F - 69.8 °F 100% 29.92 in 5.0 mi Calm Calm - N/A   Mostly Cloudy
3:55 AM 70.7 °F - 70.7 °F 100% 29.92 in 5.0 mi Calm Calm - N/A   Mostly Cloudy
4:52 AM 71.6 °F - 71.6 °F 100% 29.91 in 5.0 mi ESE 3.5 mph - N/A   Overcast
4:55 AM 71.4 °F - 71.4 °F 100% 29.91 in 4.0 mi Calm Calm - N/A   Overcast
4:59 AM 71.6 °F - 71.6 °F 100% 29.91 in 3.0 mi ESE 3.5 mph - N/A   Overcast
5:04 AM 71.6 °F - 71.6 °F 100% 29.91 in 2.5 mi ESE 3.5 mph - N/A   Overcast
5:08 AM 71.6 °F - 71.6 °F 100% 29.91 in 1.8 mi ESE 3.5 mph - N/A   Overcast
5:11 AM 71.6 °F - 71.6 °F 100% 29.91 in 1.5 mi ESE 3.5 mph - N/A   Overcast
5:16 AM 71.6 °F - 71.6 °F 100% 29.91 in 1.8 mi Calm Calm - N/A   Overcast
5:25 AM 71.6 °F - 71.6 °F 100% 29.92 in 1.5 mi Calm Calm - N/A   Overcast
5:31 AM 71.6 °F - 71.6 °F 100% 29.93 in 1.8 mi Calm Calm - N/A   Overcast
5:34 AM 71.6 °F - 71.6 °F 100% 29.93 in 2.0 mi Calm Calm - N/A   Overcast
5:38 AM 71.6 °F - 71.6 °F 100% 29.93 in 3.0 mi Calm Calm - N/A   Overcast
5:42 AM 71.6 °F - 71.6 °F 100% 29.93 in 4.0 mi Calm Calm - N/A   Overcast
5:54 AM 71.6 °F - 71.6 °F 100% 29.94 in 4.0 mi Calm Calm - N/A   Overcast
5:55 AM 71.8 °F - 71.8 °F 100% 29.94 in 3.0 mi Calm Calm - N/A   Overcast
6:03 AM 71.6 °F - 71.6 °F 100% 29.94 in 2.5 mi Calm Calm - N/A   Overcast
6:33 AM 71.6 °F - 71.6 °F 100% 29.96 in 1.8 mi Calm Calm - N/A   Overcast
6:36 AM 71.6 °F - 71.6 °F 100% 29.96 in 1.2 mi Calm Calm - N/A   Overcast
6:38 AM 71.6 °F - 71.6 °F 100% 29.96 in 1.0 mi Calm Calm - N/A   Overcast
6:41 AM 71.6 °F - 71.6 °F 100% 29.96 in 0.8 mi Calm Calm - N/A   Overcast
6:49 AM 71.6 °F - 71.6 °F 100% 29.96 in 0.5 mi Calm Calm - N/A Fog Fog
6:55 AM 72.1 °F - 72.1 °F 100% 29.96 in 0.5 mi Calm Calm - N/A Fog Fog
6:59 AM 71.6 °F - 71.6 °F 100% 29.96 in 0.8 mi Calm Calm - N/A   Overcast
7:14 AM 71.6 °F - 71.6 °F 100% 29.97 in 0.8 mi Calm Calm - N/A   Overcast
7:19 AM 71.6 °F - 71.6 °F 100% 29.97 in 1.0 mi Calm Calm - N/A   Overcast
7:25 AM 71.6 °F - 71.6 °F 100% 29.96 in 1.0 mi SE 3.5 mph - N/A   Overcast
7:27 AM 71.6 °F - 71.6 °F 100% 29.96 in 1.0 mi SE 3.5 mph - N/A   Overcast
7:28 AM 71.6 °F - 71.6 °F 100% 29.96 in 1.0 mi Calm Calm - N/A   Overcast
7:39 AM 73.4 °F - 73.4 °F 100% 29.96 in 1.0 mi Calm Calm - N/A   Overcast
7:40 AM 73.4 °F - 73.4 °F 100% 29.96 in 1.0 mi SE 3.5 mph - N/A   Overcast
7:44 AM 73.4 °F - 73.4 °F 100% 29.96 in 1.2 mi SSE 3.5 mph - N/A   Overcast
7:47 AM 73.4 °F - 73.4 °F 100% 29.96 in 1.5 mi SE 4.6 mph - N/A   Overcast
7:51 AM 73.4 °F - 73.4 °F 100% 29.96 in 1.8 mi SE 4.6 mph - N/A   Overcast
7:54 AM 73.4 °F - 73.4 °F 100% 29.96 in 2.0 mi SE 4.6 mph - N/A   Overcast
7:55 AM 73.0 °F - 73.0 °F 100% 29.96 in 2.0 mi SE 3.5 mph - N/A   Overcast
8:05 AM 73.4 °F - 73.4 °F 100% 29.96 in 3.0 mi SSE 3.5 mph - N/A   Overcast
8:07 AM 73.4 °F - 73.4 °F 100% 29.96 in 2.5 mi SSE 3.5 mph - N/A   Overcast
8:14 AM 73.4 °F - 73.4 °F 100% 29.96 in 1.8 mi Calm Calm - N/A   Overcast
8:17 AM 73.4 °F - 73.4 °F 100% 29.97 in 1.5 mi South 3.5 mph - N/A   Overcast
8:20 AM 73.4 °F - 73.4 °F 100% 29.97 in 1.2 mi South 3.5 mph - N/A   Overcast
8:23 AM 73.4 °F - 73.4 °F 100% 29.97 in 1.0 mi South 3.5 mph - N/A   Overcast
8:27 AM 73.4 °F - 73.4 °F 100% 29.97 in 0.8 mi South 3.5 mph - N/A   Overcast
8:28 AM 73.4 °F - 73.4 °F 100% 29.98 in 0.8 mi Calm Calm - N/A   Overcast
8:29 AM 73.4 °F - 73.4 °F 100% 29.98 in 1.0 mi Calm Calm - N/A   Overcast
8:38 AM 73.4 °F - 73.4 °F 100% 29.97 in 1.0 mi Variable 3.5 mph - N/A   Overcast
8:54 AM 73.4 °F - 73.4 °F 100% 29.97 in 1.2 mi South 4.6 mph - N/A   Overcast
8:55 AM 74.3 °F - 74.3 °F 100% 29.97 in 1.2 mi South 4.6 mph - N/A   Overcast
8:56 AM 73.4 °F - 73.4 °F 100% 29.98 in 1.5 mi Variable 3.5 mph - N/A   Overcast
8:58 AM 75.2 °F - 75.2 °F 100% 29.98 in 1.8 mi South 4.6 mph - N/A   Overcast
8:59 AM 75.2 °F - 75.2 °F 100% 29.98 in 2.0 mi South 4.6 mph - N/A   Overcast
9:15 AM 75.2 °F - 75.2 °F 100% 29.97 in 3.0 mi South 4.6 mph - N/A   Overcast
9:55 AM 75.4 °F - 75.4 °F 100% 29.96 in 7.0 mi SSE 5.8 mph - N/A   Overcast
10:21 AM 75.2 °F - 75.2 °F 100% 29.96 in 9.0 mi SSE 6.9 mph - N/A   Overcast
10:47 AM 77.0 °F - 77.0 °F 100% 29.96 in 10.0 mi SSW 4.6 mph - N/A   Overcast
10:55 AM 77.9 °F - 76.6 °F 96% 29.96 in 10.0 mi South 5.8 mph - N/A   Overcast
10:56 AM 78.8 °F - 77.0 °F 94% 29.96 in 10.0 mi South 5.8 mph - N/A   Overcast
11:00 AM 78.8 °F - 75.2 °F 89% 29.96 in 10.0 mi South 4.6 mph - N/A   Overcast
11:02 AM 78.8 °F - 75.2 °F 89% 29.96 in 10.0 mi SSW 4.6 mph - N/A   Overcast
11:16 AM 80.6 °F 86.2 °F 75.2 °F 84% 29.96 in 10.0 mi Calm Calm - N/A   Overcast
11:43 AM 82.4 °F 89.5 °F 75.2 °F 79% 29.96 in 10.0 mi WSW 4.6 mph - N/A   Mostly Cloudy
11:55 AM 82.4 °F 88.7 °F 74.3 °F 76% 29.96 in 10.0 mi WSW 8.1 mph - 0.01 in   Mostly Cloudy
12:55 PM 84.0 °F 91.2 °F 73.9 °F 72% 29.97 in 10.0 mi WSW 9.2 mph - N/A   Mostly Cloudy
1:19 PM 86.0 °F 93.4 °F 73.4 °F 66% 29.97 in 10.0 mi WSW 8.1 mph - N/A   Mostly Cloudy
1:30 PM 86.0 °F 93.4 °F 73.4 °F 66% 29.96 in 10.0 mi WSW 5.8 mph - N/A   Mostly Cloudy
1:38 PM 86.0 °F 93.4 °F 73.4 °F 66% 29.96 in 10.0 mi WSW 6.9 mph - N/A   Mostly Cloudy
1:55 PM 87.4 °F 96.7 °F 74.7 °F 66% 29.95 in 10.0 mi West 6.9 mph - N/A   Mostly Cloudy
2:55 PM 85.3 °F 93.4 °F 74.5 °F 70% 29.94 in 10.0 mi West 11.5 mph - N/A   Scattered Clouds
3:55 PM 83.5 °F 88.8 °F 72.0 °F 68% 29.92 in 10.0 mi West 5.8 mph - N/A   Scattered Clouds
4:55 PM 84.9 °F 91.8 °F 73.4 °F 68% 29.92 in 10.0 mi Variable 6.9 mph - N/A   Partly Cloudy
5:30 PM 82.4 °F 88.2 °F 73.4 °F 74% 29.93 in 10.0 mi SSW 5.8 mph - N/A   Overcast
5:55 PM 81.3 °F 86.3 °F 73.2 °F 76% 29.92 in 10.0 mi SW 9.2 mph - N/A   Overcast
6:02 PM 80.6 °F 85.4 °F 73.4 °F 79% 29.92 in 10.0 mi SW 8.1 mph - N/A   Mostly Cloudy
6:55 PM 81.1 °F 86.0 °F 73.0 °F 76% 29.90 in 10.0 mi WSW 5.8 mph - N/A   Partly Cloudy
7:55 PM 80.4 °F 85.1 °F 73.6 °F 80% 29.91 in 10.0 mi Calm Calm - N/A   Mostly Cloudy
8:55 PM 78.4 °F - 74.1 °F 87% 29.92 in 10.0 mi Calm Calm - N/A   Clear
9:55 PM 77.5 °F - 75.7 °F 94% 29.91 in 10.0 mi Calm Calm - N/A   Overcast
10:55 PM 77.0 °F - 75.2 °F 94% 29.94 in 10.0 mi South 5.8 mph - N/A   Clear
11:55 PM 77.2 °F - 74.7 °F 92% 29.95 in 10.0 mi SSW 3.5 mph - N/A   Overcast